User: anonymous   Login
Location: Unspecified
(0.0000°N, 0.0000°E)
Time: 05:43:49
(UTC+00:00)
Language:

TBA - TO BE ASSIGNED - Orbit

View from above orbital plane
View from above orbital plane
View from above satellite
View from above satellite

Ground track
Ground track

The orbit is defined by the following mean orbital elements,

1 67679U          26145.46361972 +.00000000 +00000-0 +44470-3 0 00006
2 67679  96.6238 212.0488 0019513 203.0866 156.9499 15.24885376    02
Epoch (UTC): 25 May 2026 11:07:36
Eccentricity: 0.0019513
inclination: 96.6238°
perigee height: 478 km
apogee height: 505 km
right ascension of ascending node: 212.0488°
argument of perigee: 203.0866°
revolutions per day: 15.24885376
mean anomaly at epoch: 156.9499°

The dashed part of the orbit path shows where the satellite is in the earth's shadow,  

DLR